Location: Unspecified
(0.0000°N, 0.0000°E)
Time: 07:28:00
(UTC+00:00)

N. Korean satellite - Pass Details

Date: 12 January 2018
Orbit: 459 x 515 km, 97.2° (Epoch: 15 January)

Event Time Altitude Azimuth Distance (km) Brightness Sun altitude
Rises 19:04:39 0° 198° (SSW) 2,628 10.9 -13.0°
Reaches altitude 10° 19:07:22 10° 219° (SW) 1,736 10.4 -13.7°
Maximum altitude 19:09:44 16° 259° (WSW) 1,386 10.0 -14.2°
Drops below altitude 10° 19:12:05 10° 298° (WNW) 1,721 9.9 -14.8°
Sets 19:14:47 0° 320° (NW) 2,594 10.5 -15.4°
